Theta_e
318 320 322 322 320 321 323 325 325 325 327 329 329 330 330 332 333 334 335 337 338 338 336 339 340 340 340 334 333 331 337 330 327 332 336 335 335 335 335 335 334 333 332 331
318 321 321 322 321 323 325 324 325 329 329 327 325 325 328 328 331 331 334 335 337 337 336 336 338 338 335 333 331 330 330 330 328 330 335 337 337 335 333 331 329 327 325 324
321 322 320 322 323 325 324 326 323 331 329 326 324 327 324 324 325 336 335 333 336 337 337 336 338 335 331 327 328 329 330 330 333 327 326 331 333 332 328 326 324 324 323 321
321 319 322 321 324 324 329 325 326 327 325 330 324 328 326 323 329 336 336 334 337 338 336 336 332 330 330 333 332 330 330 331 334 330 331 332 329 327 325 324 323 322 320 319
322 323 326 326 326 325 329 324 325 326 326 328 328 329 326 323 327 332 335 339 338 335 334 333 334 333 332 330 326 327 329 331 332 332 330 327 325 323 322 321 320 319 318 317
325 323 325 328 327 326 324 324 321 323 324 331 327 328 328 326 325 330 334 335 335 334 333 333 330 328 327 326 328 329 328 329 328 326 323 322 321 319 319 317 316 314 313 312
325 327 327 328 327 326 323 322 325 330 331 331 325 329 327 325 326 330 331 331 330 328 327 326 325 325 325 325 325 324 324 323 322 322 321 319 317 315 314 313 311 310 309 309
326 328 329 330 329 329 327 323 325 332 332 331 326 330 328 327 328 327 328 329 327 327 325 325 324 323 322 322 322 322 322 321 320 319 317 315 313 310 309 309 309 308 308 308
330 332 329 331 328 326 330 331 325 326 323 327 327 329 327 328 327 326 327 326 324 324 323 322 323 323 322 322 322 321 321 319 316 314 313 310 309 309 308 308 308 308 308 308
327 332 331 332 328 327 328 326 327 324 327 332 329 328 327 331 329 327 327 326 322 323 322 321 321 323 322 321 322 319 317 316 314 312 310 310 309 309 309 308 308 308 309 309
326 328 331 328 331 331 326 330 324 322 322 328 331 328 323 327 326 328 326 325 324 323 322 320 322 322 321 320 318 317 316 315 312 311 310 309 309 309 309 308 309 309 309 309
329 327 331 332 330 331 329 329 322 325 328 324 325 329 328 325 326 327 325 326 322 321 321 319 320 321 321 320 318 317 316 313 311 310 310 309 309 309 310 310 310 310 310 310
327 327 329 329 325 327 332 331 325 322 324 328 329 329 327 328 328 328 327 323 320 321 319 317 319 320 321 320 318 317 314 312 311 310 309 309 309 309 310 310 310 310 310 309
326 324 326 328 323 326 331 331 328 326 327 329 331 331 331 329 329 328 325 321 319 318 318 318 318 319 320 320 317 315 313 312 311 310 309 309 309 309 310 310 310 310 309 309
321 327 328 327 330 332 332 332 331 330 328 330 328 332 329 328 328 326 324 320 319 317 318 319 319 320 320 319 316 314 312 311 310 309 310 309 309 309 310 310 310 310 310 310
324 333 330 330 331 331 331 330 330 332 331 331 329 331 327 325 324 327 323 321 319 317 317 320 321 319 317 316 316 314 312 311 310 309 309 309 310 310 310 310 310 310 310 310
327 326 324 333 329 328 329 334 331 330 329 330 332 328 328 328 327 326 324 320 319 316 316 321 320 318 317 316 315 314 312 311 310 309 309 309 310 310 310 310 310 310 310 310
328 327 325 329 326 329 324 331 332 332 333 330 329 328 328 326 325 324 320 319 317 315 317 320 320 318 317 317 315 314 312 310 309 309 309 309 310 310 310 310 310 310 310 311
323 326 329 329 330 330 334 332 331 332 331 331 330 327 326 325 325 325 320 317 315 315 317 320 320 318 317 316 315 313 311 310 309 309 309 310 309 309 310 310 310 310 310 311
325 323 328 327 332 335 330 332 330 327 331 330 328 328 327 326 328 325 321 317 316 317 320 322 319 318 316 316 315 313 311 310 310 310 309 309 310 308 310 310 310 310 311 310
328 326 328 327 329 328 326 330 327 329 327 328 328 327 325 326 324 320 317 317 317 317 321 322 319 318 316 316 315 313 312 312 311 311 310 308 309 308 307 307 309 308 310 310
330 330 329 326 329 331 327 330 330 324 322 328 327 325 325 322 319 317 316 316 317 318 321 321 319 318 317 316 315 313 312 313 311 308 308 309 309 305 305 305 306 308 308 310
331 327 329 326 326 321 324 324 324 323 325 327 325 323 322 320 318 316 316 315 317 317 321 321 319 317 316 316 315 312 313 311 309 309 308 309 310 308 308 308 307 305 307 307
324 323 324 325 322 324 324 325 326 325 327 324 323 320 321 320 317 317 314 313 315 318 320 321 319 317 316 316 314 312 311 311 309 309 309 309 309 309 310 310 310 308 306 306
322 322 321 321 323 325 326 326 326 326 323 322 321 320 320 318 317 316 313 312 315 318 319 320 319 318 316 315 314 312 311 310 309 309 309 309 309 310 310 310 311 310 309 306
318 321 324 324 322 321 321 324 325 325 324 321 321 319 318 318 315 314 313 315 317 319 319 319 319 318 316 315 314 313 312 312 311 309 310 309 309 310 310 311 311 311 311 309
Wind_Speed
4 6 1 4 3 3 3 2 5 2 4 8 4 7 8 8 8 8 5 4 7 5 4 3 7 4 6 11 16 15 11 12 16 18 16 16 17 13 12 13 15 18 22 26
7 1 4 3 6 6 4 6 4 3 3 12 12 12 6 8 4 7 4 3 6 4 2 3 2 2 9 15 14 15 14 17 18 11 14 12 12 10 10 9 9 11 13 15
4 4 3 4 6 7 2 1 4 10 1 5 5 13 9 7 8 12 11 5 4 5 3 4 8 11 12 13 15 18 15 15 16 10 16 18 11 10 7 8 7 11 12 11
3 6 5 9 5 4 4 6 5 8 4 2 2 2 7 9 8 13 11 6 4 2 3 4 11 13 15 18 19 19 20 20 16 18 22 20 12 8 7 8 8 9 8 9
4 7 8 7 2 2 2 7 5 4 5 4 10 6 7 6 9 8 10 5 4 5 7 8 9 10 12 16 19 20 20 21 20 20 20 18 15 12 9 9 9 9 10 9
3 3 4 2 3 3 6 5 8 5 3 4 7 4 5 5 6 6 5 7 7 6 4 4 8 13 17 19 19 23 26 26 23 22 21 20 17 14 12 12 12 12 11 11
7 4 5 6 4 6 3 7 4 4 5 4 3 5 5 6 5 3 6 7 6 5 6 7 14 19 23 23 21 20 21 21 20 20 19 18 16 15 16 16 17 19 20 20
3 5 6 8 3 1 5 5 5 4 3 2 5 2 3 3 3 4 4 4 6 8 7 8 13 16 15 14 14 14 15 15 15 15 15 14 15 16 15 14 15 15 15 14
4 1 3 2 4 1 1 5 2 6 3 3 1 1 4 3 4 6 6 7 7 7 7 6 10 11 11 11 10 10 10 12 12 13 14 15 15 15 15 13 11 13 14 13
6 3 1 3 1 6 5 5 4 4 2 1 3 2 4 3 4 4 5 5 5 5 6 6 7 7 7 8 8 9 11 12 12 13 14 16 15 13 14 14 14 14 15 14
4 4 3 2 5 1 5 3 6 5 3 4 1 5 5 8 6 2 6 5 2 2 3 4 7 6 7 7 8 9 11 11 12 12 13 14 14 15 13 15 15 16 16 15
1 5 3 2 0 0 1 2 3 5 2 2 3 4 2 5 2 2 6 4 2 2 3 6 8 5 7 6 6 9 9 11 11 11 13 13 14 17 17 17 16 16 15 15
6 2 3 7 5 1 3 2 4 4 3 2 4 5 1 2 3 3 1 2 2 3 4 6 9 10 7 7 6 6 8 10 10 12 15 15 15 16 18 18 16 16 16 16
8 3 6 6 4 2 3 2 2 4 3 4 4 2 5 6 5 3 3 3 1 2 3 3 6 10 10 6 6 6 9 10 10 14 15 15 16 16 17 16 15 15 16 17
4 4 0 3 2 3 2 3 4 4 3 4 5 8 7 10 7 5 4 4 1 4 5 4 4 9 10 7 6 5 9 9 10 13 13 13 14 15 15 15 15 16 18 16
4 1 1 6 2 3 3 6 6 3 2 2 4 4 2 5 7 4 5 4 4 5 5 2 4 7 6 5 4 5 7 7 9 11 12 13 14 14 15 14 14 16 21 20
3 4 3 1 3 4 4 3 2 2 2 5 4 4 5 4 7 5 4 6 6 6 4 1 3 3 3 3 2 4 6 7 9 11 12 13 16 16 16 15 14 14 18 22
4 4 2 2 2 0 5 3 2 3 0 1 2 2 2 4 4 3 4 5 6 5 3 3 2 2 1 1 2 4 6 6 9 11 12 15 18 16 16 15 14 13 14 17
4 4 3 4 2 4 2 3 1 3 4 2 1 5 5 5 4 2 5 5 4 3 1 3 4 3 1 1 3 4 5 6 9 12 13 13 16 16 15 16 16 15 14 15
5 7 4 2 3 4 5 2 4 4 4 2 6 6 7 5 3 4 4 5 5 2 3 5 6 3 1 1 3 5 5 6 10 11 11 12 13 14 12 13 13 14 12 13
3 4 4 2 2 6 5 3 3 5 6 4 6 6 7 5 4 2 8 4 3 1 4 5 6 2 1 2 4 6 6 9 9 10 8 10 12 12 12 9 11 12 10 12
5 5 2 3 2 4 6 4 5 6 3 5 6 7 8 4 5 5 5 3 3 2 5 7 6 3 1 2 4 6 5 7 8 9 8 10 9 11 11 13 11 12 12 10
1 5 5 7 6 3 5 2 4 7 7 5 5 4 7 7 5 7 6 4 4 4 6 7 7 5 2 2 3 5 4 6 7 8 8 9 8 7 10 12 13 13 12 12
1 2 3 2 3 4 4 3 3 5 4 4 5 7 9 8 8 7 4 4 4 6 6 9 9 7 5 5 3 3 3 4 6 8 8 8 8 8 9 9 9 9 10 10
4 4 4 3 4 2 3 6 6 6 6 6 7 7 11 10 8 7 5 6 8 8 6 7 9 10 8 6 3 2 2 3 5 7 8 8 8 9 10 9 9 8 7 7
4 6 4 5 6 6 6 7 7 9 8 9 9 7 6 10 9 11 9 9 11 9 6 6 7 10 8 6 4 2 2 2 2 4 7 8 8 10 10 11 9 8 6 5
Wind_Direction
1 58 24 284 185 171 146 74 71 152 229 67 22 56 22 13 36 39 70 111 101 79 69 122 223 278 324 351 346 327 324 12 5 342 297 282 281 291 287 290 293 291 296 294
11 114 204 240 89 104 64 94 65 30 74 92 68 31 348 24 20 37 107 133 105 104 263 306 13 269 26 8 20 358 332 317 326 342 358 315 313 325 332 328 330 339 350 344
150 276 249 148 70 80 358 207 164 154 111 59 49 38 13 350 17 28 24 82 103 166 144 19 9 15 0 4 343 348 356 356 359 337 348 350 353 351 8 8 16 4 350 347
22 314 50 100 105 124 55 337 171 123 75 93 6 152 2 340 6 35 8 26 94 94 33 0 12 358 344 336 342 345 357 355 352 354 357 360 14 18 21 15 5 348 355 349
288 14 39 66 25 162 86 46 50 102 90 72 356 78 294 354 358 2 360 2 27 15 12 3 352 340 351 357 359 0 0 15 13 3 17 36 53 51 30 19 16 358 353 353
7 306 57 54 7 30 146 71 43 56 76 53 313 108 308 3 313 334 354 7 22 23 13 6 11 20 25 25 35 37 33 33 33 39 46 48 49 44 31 16 6 0 360 349
355 360 336 44 4 24 91 67 3 10 20 188 299 57 229 320 331 340 331 353 12 28 22 13 20 34 47 40 37 37 36 42 43 45 44 39 34 23 16 6 358 352 349 347
96 356 9 342 56 191 34 117 145 195 184 230 6 112 265 292 339 22 20 8 18 20 21 30 38 45 40 39 40 45 50 53 50 44 38 27 17 8 2 357 356 354 347 351
134 276 325 59 33 44 132 48 163 106 19 71 239 324 295 2 23 23 9 33 24 30 36 35 41 42 46 44 55 63 59 58 50 39 26 23 15 15 14 6 6 6 8 1
188 101 70 296 22 35 99 154 57 19 128 188 289 243 224 226 225 286 348 13 16 30 33 20 29 41 42 42 64 61 54 53 40 28 26 17 13 16 15 17 18 15 10 3
128 96 278 31 29 331 349 29 55 109 115 156 185 259 212 203 221 324 298 324 20 81 31 1 25 37 35 45 53 47 50 37 26 22 16 11 14 10 15 17 15 12 9 7
116 123 98 185 323 185 197 98 103 113 222 70 136 282 27 196 197 238 295 334 86 74 19 353 356 358 19 32 40 42 39 22 17 14 8 12 21 24 19 13 11 6 5 10
179 31 60 352 357 347 63 54 97 104 83 184 123 265 150 188 213 244 333 126 20 46 357 341 358 354 5 21 31 36 26 15 14 11 8 16 12 11 12 11 11 11 14 17
85 102 149 181 197 146 63 107 116 99 103 176 215 235 233 228 211 74 126 172 190 277 301 331 356 352 0 21 31 37 21 11 15 10 13 14 16 14 10 10 12 17 18 16
89 96 138 73 141 125 127 81 186 201 166 143 213 193 214 200 180 152 176 190 255 305 316 341 346 355 8 36 36 28 15 11 13 8 6 11 9 6 9 14 18 20 15 20
10 126 93 27 28 51 75 32 90 93 125 57 113 242 253 120 107 146 172 184 241 279 290 295 15 29 46 45 38 16 6 8 7 9 13 12 11 12 12 14 21 28 30 29
68 120 81 97 339 48 9 331 321 180 171 148 173 238 152 138 162 182 204 208 229 256 273 192 57 63 51 29 6 5 5 9 10 15 14 12 8 12 12 13 18 23 27 30
115 89 72 148 44 116 251 312 218 138 331 275 335 191 144 140 179 177 181 193 231 258 249 130 119 113 72 348 317 355 4 14 15 17 14 9 10 13 13 15 16 20 19 24
62 113 72 113 96 298 279 249 158 88 294 146 109 104 100 105 67 336 196 194 209 241 206 162 158 153 65 336 324 346 12 18 20 18 8 4 8 10 13 17 17 18 24 32
60 68 105 105 116 208 244 195 129 111 314 207 151 156 139 119 150 248 183 182 210 214 168 165 168 168 269 335 321 338 354 6 7 359 359 358 358 4 12 13 18 25 33 35
29 18 109 89 142 290 235 173 108 78 240 190 179 158 156 187 181 235 145 180 187 205 187 184 189 203 329 312 318 346 360 8 358 356 3 5 11 13 13 14 13 23 34 39
165 131 153 96 89 282 167 106 172 207 198 194 183 184 178 123 108 140 156 194 180 184 190 201 198 201 287 276 308 341 12 3 6 17 22 17 18 24 29 33 29 31 36 38
192 177 178 171 210 244 225 206 213 168 167 200 159 132 132 129 164 166 205 187 201 210 211 208 202 202 223 216 279 336 19 13 13 20 27 17 16 17 21 26 30 35 33 38
7 148 124 116 248 233 222 244 179 171 187 144 138 142 152 161 173 197 171 193 190 194 201 206 197 203 210 219 247 339 22 19 13 19 20 17 20 20 11 9 15 25 31 32
203 136 148 278 280 305 251 221 182 167 127 118 131 157 170 158 183 174 177 201 203 198 194 203 214 218 224 224 245 324 351 12 23 29 28 25 19 9 11 16 19 22 31 27
189 172 156 221 211 172 227 203 166 159 174 167 148 139 163 176 156 169 185 200 195 201 205 216 231 224 228 227 242 267 314 327 357 22 18 11 5 8 9 11 23 25 30 31